Location: Caltech
(34.1382°N, 118.1253°W)
Time: 22:35:56
(UTC-07:00)

Transit 2A - Visible Passes

Search period start: 18 August 2017 00:00
Search period end: 28 August 2017 00:00
Orbit: 595 x 964 km, 66.7° (Epoch: 18 August)

Date Brightness Start Highest point End Pass type
(mag) Time Alt. Az. Time Alt. Az. Time Alt. Az.
18 Aug 8.7 03:31:50 10° N 03:36:25 22° NE 03:41:10 10° ESE visible
18 Aug 6.4 05:13:59 10° NW 05:20:00 61° WSW 05:26:16 10° S visible
19 Aug 9.1 02:58:34 10° NNE 03:02:07 16° NE 03:05:47 10° E visible
19 Aug 6.4 04:39:53 10° NNW 04:46:02 87° WSW 04:52:25 10° SSE visible
20 Aug 9.3 02:26:05 10° NNE 02:27:45 11° NE 02:29:26 10° ENE visible
20 Aug 6.7 04:05:53 10° NNW 04:11:59 66° ENE 04:18:19 10° SE visible
20 Aug 7.7 05:50:46 10° WNW 05:54:44 18° WSW 05:58:46 10° SW visible
21 Aug 7.3 03:32:02 10° NNW 03:37:54 46° ENE 03:43:58 10° SE visible
21 Aug 7.3 05:15:52 10° NW 05:20:54 26° WSW 05:26:02 10° SSW visible
21 Aug 9.0 19:55:15 10° WNW 19:57:13 12° NW 19:59:17 10° NNW visible
22 Aug 7.9 02:58:18 10° N 03:03:45 33° ENE 03:09:23 10° ESE visible
22 Aug 6.8 04:41:21 10° NW 04:47:01 38° WSW 04:52:49 10° S visible
23 Aug 8.4 02:24:42 10° N 02:29:32 24° NE 02:32:55 16° E visible
23 Aug 6.4 04:07:03 10° NW 04:13:03 56° WSW 04:13:03 56° WSW visible
24 Aug 8.7 01:51:21 10° N 01:55:15 17° NE 01:56:23 16° ENE visible
24 Aug 7.2 03:32:55 10° NNW 03:36:42 40° NNW 03:36:42 40° NNW visible
25 Aug 9.0 01:18:31 10° NNE 01:20:53 12° NE 01:21:20 12° NE visible
25 Aug 7.9 02:58:54 10° NNW 03:01:43 29° NNW 03:01:43 29° NNW visible
26 Aug 8.3 02:25:01 10° NNW 02:27:16 23° N 02:27:16 23° N visible
27 Aug 8.6 01:51:14 10° N 01:53:06 19° N 01:53:06 19° N visible
